timestamp,wind_dir_avg,wind_spd_avg,wind_spd_max_dir,wind_spd_gust,battery_voltage,lat,long
2022-07-27 00:04:00+00:00,212.0,8.88,212.0,9.77,12.81,47.59359,-54.27349
2022-07-27 00:14:01+00:00,214.0,7.79,218.0,8.53,12.49,47.59359,-54.27349
2022-07-27 00:24:01+00:00,215.0,7.37,221.0,8.47,12.49,47.59359,-54.27349
2022-07-27 00:34:01+00:00,218.0,6.23,219.0,7.16,12.49,47.59359,-54.27349
2022-07-27 00:44:01+00:00,220.0,6.54,218.0,7.44,12.49,47.59359,-54.27349
2022-07-27 00:54:01+00:00,219.0,6.88,217.0,7.46,12.49,47.59359,-54.27349
2022-07-27 01:04:01+00:00,210.0,5.9,217.0,6.48,12.49,47.59359,-54.27349
2022-07-27 01:14:00+00:00,204.0,6.38,205.0,7.09,12.49,47.59359,-54.27349
2022-07-27 01:24:00+00:00,198.0,7.15,200.0,8.09,12.49,47.59359,-54.27349
2022-07-27 01:34:00+00:00,200.0,6.7,200.0,7.64,12.49,47.59359,-54.27349
2022-07-27 01:44:00+00:00,201.0,7.69,202.0,8.28,12.49,47.59359,-54.27349
2022-07-27 01:54:00+00:00,203.0,7.26,204.0,8.09,12.49,47.59359,-54.27349
2022-07-27 02:04:00+00:00,206.0,7.61,210.0,8.56,12.49,47.59359,-54.27349
2022-07-27 02:14:00+00:00,207.0,6.0,210.0,6.52,12.49,47.59359,-54.27349
2022-07-27 02:24:00+00:00,210.0,5.21,230.0,6.1,12.49,47.59359,-54.27349
2022-07-27 02:34:00+00:00,210.0,5.76,213.0,7.0,12.49,47.59359,-54.27349
2022-07-27 02:44:00+00:00,204.0,5.51,216.0,6.32,12.49,47.59359,-54.27349
2022-07-27 02:54:00+00:00,193.0,5.93,195.0,6.55,12.49,47.59359,-54.27349
2022-07-27 03:04:00+00:00,192.0,6.01,194.0,6.8,12.49,47.59359,-54.27349
2022-07-27 03:14:01+00:00,195.0,5.84,198.0,7.09,12.49,47.59359,-54.27349
2022-07-27 03:24:01+00:00,199.0,5.64,200.0,6.24,12.49,47.59359,-54.27349
2022-07-27 03:34:01+00:00,203.0,6.04,202.0,6.68,12.49,47.59359,-54.27349
2022-07-27 03:44:01+00:00,200.0,7.02,199.0,7.84,12.49,47.59359,-54.27349
2022-07-27 03:54:01+00:00,203.0,4.71,203.0,5.14,12.49,47.59359,-54.27349
2022-07-27 04:04:01+00:00,204.0,5.82,203.0,6.28,12.49,47.59359,-54.27349
2022-07-27 04:14:01+00:00,213.0,6.19,211.0,6.66,12.49,47.59359,-54.27349
2022-07-27 04:24:01+00:00,208.0,5.24,210.0,5.69,12.49,47.59359,-54.27349
2022-07-27 04:34:01+00:00,210.0,7.21,212.0,8.02,12.49,47.59359,-54.27349
2022-07-27 04:44:01+00:00,215.0,7.31,216.0,8.11,12.49,47.59359,-54.27349
2022-07-27 04:54:01+00:00,214.0,6.37,216.0,7.48,12.49,47.59359,-54.27349
2022-07-27 05:04:01+00:00,204.0,6.56,206.0,7.29,12.49,47.59359,-54.27349
2022-07-27 05:14:00+00:00,201.0,5.74,204.0,6.26,12.49,47.59359,-54.27349
2022-07-27 05:24:00+00:00,200.0,5.32,201.0,5.87,12.49,47.59359,-54.27349
2022-07-27 05:34:00+00:00,196.0,5.14,193.0,5.84,12.49,47.59359,-54.27349
2022-07-27 05:44:00+00:00,193.0,4.83,199.0,5.38,12.49,47.59359,-54.27349
2022-07-27 05:54:00+00:00,193.0,4.53,194.0,4.96,12.49,47.59359,-54.27349
2022-07-27 06:04:00+00:00,202.0,4.6,207.0,5.01,12.49,47.59359,-54.27349
2022-07-27 06:14:00+00:00,205.0,4.84,203.0,5.54,12.41,47.59359,-54.27349
2022-07-27 06:24:00+00:00,205.0,5.07,205.0,5.65,12.41,47.59359,-54.27349
2022-07-27 06:34:00+00:00,216.0,5.01,220.0,5.81,12.41,47.59359,-54.27349
2022-07-27 06:44:00+00:00,216.0,6.19,224.0,6.97,12.41,47.59359,-54.27349
2022-07-27 06:54:00+00:00,209.0,4.42,215.0,5.13,12.41,47.59359,-54.27349
2022-07-27 07:04:00+00:00,217.0,4.37,223.0,4.95,12.41,47.59359,-54.27349
2022-07-27 08:14:01+00:00,200.0,4.1,199.0,4.8,12.33,47.59359,-54.27349
2022-07-27 08:24:01+00:00,203.0,4.74,202.0,5.34,12.33,47.59359,-54.27349
2022-07-27 08:34:01+00:00,199.0,5.3,198.0,5.98,12.33,47.59359,-54.27349
2022-07-27 08:44:01+00:00,204.0,4.72,203.0,5.15,12.33,47.59359,-54.27349
2022-07-27 08:54:01+00:00,205.0,4.16,210.0,5.0,12.33,47.59359,-54.27349
2022-07-27 09:04:01+00:00,197.0,4.95,199.0,5.34,12.33,47.59359,-54.27349
2022-07-27 09:14:00+00:00,195.0,5.5,196.0,6.1,12.25,47.59359,-54.27349
2022-07-27 09:24:00+00:00,201.0,6.28,201.0,6.86,12.25,47.59359,-54.27349
2022-07-27 09:34:00+00:00,204.0,5.59,203.0,6.28,12.25,47.59359,-54.27349
2022-07-27 09:44:00+00:00,197.0,4.81,197.0,5.28,12.25,47.59359,-54.27349
2022-07-27 09:54:00+00:00,195.0,5.4,192.0,5.84,12.25,47.59359,-54.27349
2022-07-27 10:04:00+00:00,195.0,5.21,196.0,5.99,12.25,47.59359,-54.27349
2022-07-27 10:14:01+00:00,202.0,4.85,200.0,5.48,12.41,47.59359,-54.27349
2022-07-27 10:24:01+00:00,199.0,4.55,202.0,4.92,12.41,47.59359,-54.27349
2022-07-27 10:34:01+00:00,194.0,4.2,193.0,4.77,12.41,47.59359,-54.27349
2022-07-27 10:44:01+00:00,197.0,4.78,198.0,5.12,12.41,47.59359,-54.27349
2022-07-27 10:54:01+00:00,200.0,4.58,199.0,4.91,12.41,47.59359,-54.27349
2022-07-27 11:04:01+00:00,199.0,3.98,200.0,4.21,12.41,47.59359,-54.27349
2022-07-27 11:14:00+00:00,200.0,3.68,198.0,4.03,12.81,47.59359,-54.27349
2022-07-27 11:24:00+00:00,201.0,4.65,201.0,5.29,12.81,47.59359,-54.27349
2022-07-27 11:34:00+00:00,204.0,4.24,210.0,4.94,12.81,47.59359,-54.27349
2022-07-27 11:44:00+00:00,205.0,4.31,209.0,4.73,12.81,47.59359,-54.27349
2022-07-27 11:54:00+00:00,205.0,5.24,208.0,5.73,12.81,47.59359,-54.27349
2022-07-27 12:04:00+00:00,208.0,4.93,213.0,5.47,12.81,47.59359,-54.27349
2022-07-27 12:14:00+00:00,201.0,4.5,200.0,4.97,12.81,47.59359,-54.27349
2022-07-27 12:24:00+00:00,204.0,5.66,200.0,6.34,12.81,47.59359,-54.27349
2022-07-27 12:34:00+00:00,204.0,5.75,202.0,6.28,12.81,47.59359,-54.27349
2022-07-27 12:44:00+00:00,213.0,4.18,217.0,4.66,12.81,47.59359,-54.27349
2022-07-27 12:54:00+00:00,220.0,3.74,220.0,4.17,12.81,47.59359,-54.27349
2022-07-27 13:04:00+00:00,214.0,3.51,209.0,3.77,12.81,47.59359,-54.27349
2022-07-27 13:14:01+00:00,315.0,0.01,209.0,0.0,13.13,47.59359,-54.27349
2022-07-27 13:24:01+00:00,315.0,0.01,209.0,0.0,13.13,47.59359,-54.27349
2022-07-27 13:34:01+00:00,315.0,0.01,209.0,0.0,13.13,47.59359,-54.27349
2022-07-27 13:44:01+00:00,315.0,0.01,209.0,0.0,13.13,47.59359,-54.27349
2022-07-27 13:54:01+00:00,315.0,0.01,209.0,0.0,13.13,47.59359,-54.27349
2022-07-27 14:04:01+00:00,209.0,4.12,211.0,4.55,13.13,47.59359,-54.27349
2022-07-27 14:14:01+00:00,214.0,4.38,215.0,4.76,13.53,47.59359,-54.27349
2022-07-27 14:24:01+00:00,202.0,4.12,197.0,4.79,13.53,47.59359,-54.27349
2022-07-27 14:34:01+00:00,206.0,5.12,206.0,5.49,13.53,47.59359,-54.27349
2022-07-27 14:44:01+00:00,209.0,5.39,210.0,5.77,13.53,47.59359,-54.27349
2022-07-27 14:54:01+00:00,217.0,4.74,224.0,5.37,13.53,47.59359,-54.27349
2022-07-27 15:04:01+00:00,224.0,5.29,227.0,6.15,13.53,47.59359,-54.27349
2022-07-27 15:14:00+00:00,231.0,4.99,228.0,6.21,13.68,47.59359,-54.27349
2022-07-27 15:24:00+00:00,224.0,5.23,226.0,5.94,13.68,47.59359,-54.27349
2022-07-27 15:34:00+00:00,223.0,5.29,224.0,5.86,13.68,47.59359,-54.27349
2022-07-27 15:44:00+00:00,227.0,4.55,225.0,5.42,13.68,47.59359,-54.27349
2022-07-27 15:54:00+00:00,219.0,4.04,217.0,4.52,13.68,47.59359,-54.27349
2022-07-27 16:04:00+00:00,226.0,3.04,219.0,3.44,13.68,47.59359,-54.27349
2022-07-27 16:14:01+00:00,226.0,2.47,228.0,3.02,13.68,47.59359,-54.27349
2022-07-27 16:24:01+00:00,230.0,2.36,222.0,2.74,13.68,47.59359,-54.27349
2022-07-27 16:34:01+00:00,203.0,3.02,201.0,3.5,13.68,47.59359,-54.27349
2022-07-27 16:44:01+00:00,193.0,4.64,190.0,5.01,13.68,47.59359,-54.27349
2022-07-27 16:54:01+00:00,187.0,3.95,188.0,4.25,13.68,47.59359,-54.27349
2022-07-27 17:04:01+00:00,196.0,4.19,199.0,4.65,13.68,47.59359,-54.27349
2022-07-27 17:14:01+00:00,315.0,0.01,197.0,0.0,14.32,47.59359,-54.27349
2022-07-27 17:24:01+00:00,315.0,0.01,197.0,0.0,14.32,47.59359,-54.27349
2022-07-27 17:34:01+00:00,187.0,5.28,187.0,5.89,14.32,47.59359,-54.27349
2022-07-27 17:44:01+00:00,185.0,5.46,186.0,5.93,14.32,47.59359,-54.27349
2022-07-27 17:54:01+00:00,196.0,5.76,195.0,6.33,14.32,47.59359,-54.27349
2022-07-27 18:04:01+00:00,205.0,5.25,198.0,5.98,14.32,47.59359,-54.27349
2022-07-27 18:14:01+00:00,204.0,6.05,208.0,7.4,13.84,47.59359,-54.27349
2022-07-27 18:24:01+00:00,209.0,7.17,209.0,7.62,13.84,47.59359,-54.27349
2022-07-27 18:34:01+00:00,208.0,7.6,209.0,8.54,13.84,47.59359,-54.27349
2022-07-27 18:44:01+00:00,207.0,7.0,207.0,7.58,13.84,47.59359,-54.27349
2022-07-27 18:54:01+00:00,209.0,6.72,209.0,7.2,13.84,47.59359,-54.27349
2022-07-27 19:04:01+00:00,212.0,6.71,214.0,7.73,13.84,47.59359,-54.27349
2022-07-27 19:14:00+00:00,206.0,6.49,213.0,7.25,13.68,47.59359,-54.27349
2022-07-27 19:24:00+00:00,210.0,6.46,212.0,7.27,13.68,47.59359,-54.27349
2022-07-27 19:34:00+00:00,213.0,6.75,213.0,8.21,13.68,47.59359,-54.27349
2022-07-27 19:44:00+00:00,212.0,6.39,210.0,7.34,13.68,47.59359,-54.27349
2022-07-27 19:54:00+00:00,210.0,7.12,212.0,8.23,13.68,47.59359,-54.27349
2022-07-27 20:04:00+00:00,202.0,7.26,205.0,7.99,13.68,47.59359,-54.27349
2022-07-27 20:14:00+00:00,205.0,7.48,202.0,8.11,13.68,47.59359,-54.27349
2022-07-27 20:24:00+00:00,212.0,6.82,212.0,7.73,13.68,47.59359,-54.27349
2022-07-27 20:34:00+00:00,214.0,7.32,207.0,8.69,13.68,47.59359,-54.27349
2022-07-27 20:44:00+00:00,212.0,7.1,208.0,7.82,13.68,47.59359,-54.27349
2022-07-27 20:54:00+00:00,215.0,6.59,216.0,7.92,13.68,47.59359,-54.27349
2022-07-27 21:04:00+00:00,217.0,7.84,215.0,8.81,13.68,47.59359,-54.27349
2022-07-27 21:14:00+00:00,213.0,7.31,218.0,8.38,13.37,47.59359,-54.27349
2022-07-27 21:24:00+00:00,216.0,7.37,217.0,8.3,13.37,47.59359,-54.27349
2022-07-27 21:34:00+00:00,211.0,7.62,209.0,8.1,13.37,47.59359,-54.27349
2022-07-27 21:44:00+00:00,216.0,7.8,216.0,8.58,13.37,47.59359,-54.27349
2022-07-27 21:54:00+00:00,211.0,9.02,213.0,10.17,13.37,47.59359,-54.27349
2022-07-27 22:04:00+00:00,216.0,8.76,216.0,9.63,13.37,47.59359,-54.27349
2022-07-27 22:14:01+00:00,220.0,7.7,220.0,8.88,13.13,47.59359,-54.27349
2022-07-27 22:24:01+00:00,211.0,6.73,213.0,7.75,13.13,47.59359,-54.27349
2022-07-27 22:34:01+00:00,210.0,6.85,207.0,7.44,13.13,47.59359,-54.27349
2022-07-27 22:44:01+00:00,213.0,6.49,219.0,7.42,13.13,47.59359,-54.27349
2022-07-27 22:54:01+00:00,212.0,5.75,214.0,6.52,13.13,47.59359,-54.27349
2022-07-27 23:04:01+00:00,210.0,5.32,209.0,6.07,13.13,47.59359,-54.27349
2022-07-27 23:14:00+00:00,210.0,5.12,212.0,5.71,12.73,47.59359,-54.27349
2022-07-27 23:24:00+00:00,220.0,4.33,214.0,4.97,12.73,47.59359,-54.27349
2022-07-27 23:34:00+00:00,196.0,4.2,195.0,4.68,12.73,47.59359,-54.27349
2022-07-27 23:44:00+00:00,206.0,3.15,201.0,3.76,12.73,47.59359,-54.27349
2022-07-27 23:54:00+00:00,206.0,3.05,199.0,4.02,12.73,47.59359,-54.27349
